Location: Helion Bumpstead
(52.0500°N, 0.4000°E)
Time: 07:38:20
(UTC+00:00)

Meteor 1-21 Rocket - Pass Details

Date: 15 November 2025
Orbit: 831 x 907 km, 81.2° (Epoch: 14 December)

Event Time Altitude Azimuth Distance (km) Brightness Sun altitude
Rises 05:49:30 0° 202° (SSW) 3,461 7.3 -13.6°
Reaches altitude 10° 05:51:59 10° 206° (SSW) 2,515 6.5 -13.2°
Maximum altitude 05:57:39 62° 287° (WNW) 966 4.2 -12.3°
Drops below altitude 10° 06:03:14 10° 8° (N) 2,483 6.6 -11.5°
Sets 06:05:40 0° 12° (NNE) 3,414 7.3 -11.1°
